Hourly Weather Barnala

Today, 23 September, Wednesday

Time Temperature Precipitation Wind Pressure Humidity
00:00 +29°C° 0.1 mm 1 mps 730 mmHg 59%
01:00 +29°C° 0.1 mm 2 mps 730 mmHg 64%
02:00 +28°C° 0.1 mm 2 mps 730 mmHg 68%
03:00 +28°C° 0 mm 2 mps 730 mmHg 71%
04:00 +27°C° 0 mm 2 mps 730 mmHg 75%
05:00 +27°C° 0 mm 3 mps 730 mmHg 78%
06:00 +28°C° 0 mm 3 mps 731 mmHg 76%
07:00 +29°C° 0 mm 3 mps 731 mmHg 73%
08:00 +31°C° 0 mm 3 mps 732 mmHg 71%
09:00 +34°C° 0 mm 3 mps 732 mmHg 62%
10:00 +36°C° 0 mm 2 mps 732 mmHg 52%
11:00 +38°C° 0 mm 2 mps 732 mmHg 43%
12:00 +39°C° 0 mm 2 mps 731 mmHg 38%
13:00 +40°C° 0 mm 2 mps 731 mmHg 34%
14:00 +41°C° 0 mm 2 mps 730 mmHg 29%
15:00 +40°C° 0 mm 2 mps 730 mmHg 31%
16:00 +39°C° 0 mm 1 mps 730 mmHg 33%
17:00 +37°C° 0 mm 1 mps 729 mmHg 34%
18:00 +36°C° 0 mm 1 mps 730 mmHg 39%
19:00 +35°C° 0 mm 2 mps 730 mmHg 43%
20:00 +32°C° 0 mm 2 mps 730 mmHg 47%
21:00 +32°C° 0 mm 2 mps 731 mmHg 51%
22:00 +31°C° 0 mm 2 mps 731 mmHg 55%
23:00 +30°C° 0 mm 2 mps 731 mmHg 58%

Tomorrow, 24 September, Thursday

Time Temperature Precipitation Wind Pressure Humidity
00:00 +30°C° 0 mm 2 mps 731 mmHg 62%
01:00 +29°C° 0 mm 2 mps 731 mmHg 66%
02:00 +29°C° 0 mm 2 mps 731 mmHg 70%
03:00 +28°C° 0 mm 2 mps 731 mmHg 73%
04:00 +28°C° 0 mm 3 mps 732 mmHg 76%
05:00 +27°C° 0 mm 3 mps 732 mmHg 80%
06:00 +29°C° 0 mm 3 mps 732 mmHg 76%
07:00 +30°C° 0 mm 3 mps 733 mmHg 72%
08:00 +31°C° 0 mm 3 mps 733 mmHg 69%
09:00 +34°C° 0 mm 2 mps 733 mmHg 59%
10:00 +37°C° 0 mm 2 mps 733 mmHg 49%
11:00 +39°C° 0 mm 2 mps 733 mmHg 38%
12:00 +41°C° 0 mm 2 mps 733 mmHg 32%
13:00 +42°C° 0 mm 2 mps 733 mmHg 25%
14:00 +43°C° 0 mm 2 mps 732 mmHg 18%
15:00 +43°C° 0 mm 3 mps 732 mmHg 20%
16:00 +42°C° 0 mm 3 mps 731 mmHg 21%
17:00 +40°C° 0 mm 3 mps 731 mmHg 22%
18:00 +38°C° 0 mm 2 mps 731 mmHg 27%
19:00 +35°C° 0 mm 2 mps 731 mmHg 32%
20:00 +31°C° 0 mm 2 mps 732 mmHg 37%
21:00 +31°C° 0 mm 2 mps 732 mmHg 41%
22:00 +30°C° 0 mm 2 mps 732 mmHg 45%
23:00 +29°C° 0 mm 2 mps 732 mmHg 49%

Day after tomorrow, 25 September, Friday

Time Temperature Precipitation Wind Pressure Humidity
00:00 +29°C° 0 mm 2 mps 732 mmHg 51%
01:00 +29°C° 0 mm 2 mps 732 mmHg 53%
02:00 +28°C° 0 mm 2 mps 731 mmHg 55%
03:00 +28°C° 0 mm 2 mps 731 mmHg 56%
04:00 +27°C° 0 mm 2 mps 731 mmHg 58%
05:00 +27°C° 0 mm 1 mps 731 mmHg 59%
06:00 +28°C° 0 mm 2 mps 731 mmHg 56%
07:00 +30°C° 0 mm 2 mps 732 mmHg 52%
08:00 +31°C° 0 mm 2 mps 732 mmHg 49%
09:00 +35°C° 0 mm 2 mps 732 mmHg 41%
10:00 +38°C° 0 mm 2 mps 732 mmHg 33%
11:00 +41°C° 0 mm 2 mps 732 mmHg 24%
12:00 +42°C° 0 mm 2 mps 732 mmHg 20%
13:00 +43°C° 0 mm 2 mps 731 mmHg 17%
14:00 +45°C° 0 mm 2 mps 731 mmHg 13%
15:00 +43°C° 0 mm 2 mps 730 mmHg 14%
16:00 +42°C° 0 mm 2 mps 730 mmHg 15%
17:00 +41°C° 0 mm 2 mps 729 mmHg 16%
18:00 +38°C° 0 mm 2 mps 729 mmHg 21%
19:00 +35°C° 0 mm 2 mps 729 mmHg 26%
20:00 +33°C° 0 mm 3 mps 730 mmHg 30%
21:00 +31°C° 0 mm 2 mps 730 mmHg 33%
22:00 +30°C° 0 mm 2 mps 730 mmHg 36%
23:00 +29°C° 0 mm 2 mps 730 mmHg 39%

26 September, Saturday

Time Temperature Precipitation Wind Pressure Humidity
00:00 +29°C° 0 mm 2 mps 730 mmHg 40%
01:00 +29°C° 0 mm 2 mps 730 mmHg 40%
02:00 +28°C° 0 mm 2 mps 730 mmHg 40%
03:00 +28°C° 0 mm 2 mps 730 mmHg 38%
04:00 +28°C° 0 mm 2 mps 730 mmHg 36%
05:00 +28°C° 0 mm 1 mps 730 mmHg 33%
06:00 +29°C° 0 mm 1 mps 731 mmHg 33%
07:00 +30°C° 0 mm 1 mps 731 mmHg 33%
08:00 +32°C° 0 mm 1 mps 732 mmHg 33%
09:00 +35°C° 0 mm 2 mps 732 mmHg 30%
10:00 +38°C° 0 mm 2 mps 732 mmHg 27%
11:00 +40°C° 0 mm 3 mps 732 mmHg 23%
12:00 +42°C° 0 mm 3 mps 732 mmHg 21%
13:00 +43°C° 0 mm 3 mps 731 mmHg 18%
14:00 +44°C° 0 mm 3 mps 730 mmHg 16%
15:00 +40°C° 0.2 mm 3 mps 730 mmHg 22%
16:00 +36°C° 0.2 mm 3 mps 730 mmHg 28%
17:00 +33°C° 0.2 mm 3 mps 729 mmHg 34%
18:00 +31°C° 0.3 mm 3 mps 730 mmHg 36%
19:00 +30°C° 0.3 mm 2 mps 730 mmHg 39%
20:00 +30°C° 0.3 mm 2 mps 731 mmHg 41%
21:00 +29°C° 0 mm 2 mps 731 mmHg 44%
22:00 +28°C° 0 mm 2 mps 731 mmHg 46%
23:00 +28°C° 0 mm 2 mps 731 mmHg 49%

27 September, Sunday

Time Temperature Precipitation Wind Pressure Humidity
00:00 +27°C° 0 mm 2 mps 731 mmHg 49%
01:00 +26°C° 0 mm 2 mps 731 mmHg 50%
02:00 +26°C° 0 mm 2 mps 731 mmHg 51%
03:00 +26°C° 0 mm 2 mps 731 mmHg 52%
04:00 +25°C° 0 mm 2 mps 731 mmHg 53%
05:00 +25°C° 0 mm 1 mps 732 mmHg 54%
06:00 +27°C° 0 mm 1 mps 732 mmHg 49%
07:00 +29°C° 0 mm 1 mps 733 mmHg 44%
08:00 +31°C° 0 mm 1 mps 734 mmHg 39%
09:00 +33°C° 0 mm 1 mps 734 mmHg 34%
10:00 +36°C° 0 mm 1 mps 734 mmHg 30%
11:00 +39°C° 0 mm 2 mps 734 mmHg 26%
12:00 +40°C° 0 mm 1 mps 734 mmHg 23%
13:00 +41°C° 0 mm 1 mps 733 mmHg 21%
14:00 +42°C° 0 mm 1 mps 733 mmHg 18%
15:00 +41°C° 0 mm 1 mps 732 mmHg 19%
16:00 +40°C° 0 mm 1 mps 732 mmHg 21%
17:00 +39°C° 0 mm 1 mps 731 mmHg 22%
18:00 +36°C° 0 mm 1 mps 732 mmHg 24%
19:00 +34°C° 0 mm 1 mps 732 mmHg 26%
20:00 +32°C° 0 mm 1 mps 732 mmHg 28%
21:00 +32°C° 0 mm 1 mps 732 mmHg 29%
22:00 +31°C° 0 mm 1 mps 732 mmHg 31%
23:00 +30°C° 0 mm 1 mps 732 mmHg 32%

28 September, Monday

Time Temperature Precipitation Wind Pressure Humidity
00:00 +30°C° 0 mm 1 mps 732 mmHg 34%
01:00 +29°C° 0 mm 1 mps 732 mmHg 36%
02:00 +29°C° 0 mm 2 mps 732 mmHg 38%
03:00 +28°C° 0 mm 1 mps 732 mmHg 39%
04:00 +28°C° 0 mm 1 mps 732 mmHg 41%
05:00 +28°C° 0 mm 1 mps 733 mmHg 43%
06:00 +29°C° 0 mm 1 mps 733 mmHg 41%
07:00 +31°C° 0 mm 2 mps 734 mmHg 39%
08:00 +32°C° 0 mm 2 mps 735 mmHg 37%
09:00 +35°C° 0 mm 2 mps 735 mmHg 32%
10:00 +38°C° 0 mm 2 mps 735 mmHg 28%
11:00 +40°C° 0 mm 3 mps 735 mmHg 24%
12:00 +40°C° 0 mm 2 mps 734 mmHg 22%
13:00 +41°C° 0 mm 2 mps 734 mmHg 19%
14:00 +42°C° 0 mm 2 mps 733 mmHg 17%
15:00 +41°C° 0 mm 2 mps 733 mmHg 19%
16:00 +39°C° 0 mm 2 mps 732 mmHg 20%
17:00 +38°C° 0 mm 2 mps 732 mmHg 22%
18:00 +35°C° 0 mm 1 mps 732 mmHg 24%
19:00 +34°C° 0 mm 1 mps 733 mmHg 27%
20:00 +32°C° 0 mm 1 mps 733 mmHg 29%
21:00 +31°C° 0 mm 1 mps 733 mmHg 30%
22:00 +31°C° 0 mm 1 mps 733 mmHg 32%
23:00 +30°C° 0 mm 2 mps 733 mmHg 33%
Show more